SCP
3 3 4 5 5 5 5 6 7 8 7 4 3 4 5 5 6 6 6 6 7 7 6 6 5 3 2 2 2 1 2 2 2 3 4 3 2 2 2 2 1 1 1
4 4 4 5 5 5 5 6 7 6 5 4 4 5 6 7 7 6 6 6 6 5 5 5 4 2 2 2 2 2 2 2 2 2 2 2 2 2 2 2 1 1 1
6 5 5 5 6 5 5 6 6 5 3 3 3 5 7 9 9 7 6 5 4 3 3 3 3 2 2 2 2 2 2 2 1 1 1 2 2 2 2 2 2 2 2
7 7 6 6 6 5 5 5 4 3 2 2 2 3 5 7 7 6 4 3 2 2 2 2 2 2 1 2 2 2 3 2 1 1 1 1 1 1 1 1 2 2 2
6 6 6 5 5 5 4 3 3 2 2 2 2 2 3 3 4 3 2 2 2 2 2 2 2 1 1 1 2 3 3 2 2 1 1 1 1 1 1 1 2 2 2
4 4 4 4 4 3 3 2 2 2 2 2 2 2 3 2 2 1 1 2 2 2 2 2 2 1 1 1 1 2 2 2 1 1 1 1 1 1 1 1 2 2 2
3 3 3 3 3 3 2 2 2 2 2 2 2 3 3 3 1 1 1 2 3 3 3 2 2 1 1 1 1 1 1 1 1 1 1 1 1 1 1 1 1 1 1
2 2 2 2 2 2 2 2 2 2 2 2 2 3 3 2 1 0 1 2 3 3 2 2 2 1 1 1 1 1 1 0 0 0 1 1 1 1 1 1 1 1 1
2 2 1 2 2 3 2 2 2 2 1 1 1 2 2 1 1 0 0 1 2 2 2 2 1 1 1 1 1 1 1 1 0 0 0 0 0 0 1 1 1 1 1
2 2 2 1 2 2 2 2 2 2 1 1 1 1 1 1 0 0 1 1 2 2 2 2 1 1 1 0 1 1 1 1 1 0 0 0 0 0 0 0 1 1 0
3 3 2 2 1 2 2 2 2 2 2 1 1 1 1 1 0 0 1 2 2 2 2 2 1 1 0 0 1 1 1 1 1 1 0 0 0 0 1 1 1 1 1
4 4 3 2 1 1 2 1 2 2 2 2 1 1 1 1 1 0 0 1 2 2 2 2 1 1 0 0 0 1 1 1 1 1 0 0 1 1 1 1 1 1 1
5 5 4 2 2 2 2 1 1 2 2 2 2 1 1 1 1 1 0 0 1 2 2 1 1 0 0 0 0 0 0 0 1 1 0 0 1 1 1 1 1 1 1
5 4 4 3 3 2 2 1 1 2 2 2 2 2 1 1 1 1 1 1 1 2 2 2 1 0 0 0 0 0 0 1 1 1 0 0 1 1 1 1 1 1 1
4 4 3 3 3 2 2 2 1 1 1 2 2 2 2 1 1 1 1 1 1 1 2 2 1 1 1 1 1 1 1 1 1 1 1 1 1 1 1 1 1 1 1
3 3 3 3 3 2 2 1 1 1 1 1 1 1 1 1 0 0 0 0 1 1 2 2 2 1 1 1 1 1 1 1 1 1 1 1 1 1 1 1 1 1 1
2 2 3 3 2 2 2 2 2 1 1 0 0 0 0 0 0 0 0 0 0 0 1 2 2 1 1 1 1 1 1 1 1 1 1 1 1 1 1 1 1 1 1
2 2 2 2 2 2 2 2 2 2 1 1 0 0 0 0 0 0 0 0 0 0 0 1 1 1 1 1 1 1 1 1 1 1 1 2 1 1 1 1 1 1 1
2 2 2 1 2 2 2 2 2 2 1 1 0 0 0 0 0 0 0 0 0 0 0 0 0 1 1 1 1 1 1 1 1 1 1 2 2 1 1 1 1 1 1
2 2 2 2 2 2 2 2 1 1 1 0 0 0 0 0 0 0 0 0 0 0 0 0 0 0 0 1 1 1 1 1 1 1 1 2 2 1 1 1 1 1 1
2 2 1 2 2 2 1 1 1 1 0 0 0 0 0 0 0 0 0 0 0 0 0 0 0 0 0 1 1 1 1 1 1 1 1 1 1 1 1 1 1 1 1
2 1 1 1 1 1 1 1 1 1 0 0 0 0 0 0 0 0 0 0 0 0 0 0 0 0 0 0 1 1 1 1 1 1 1 1 1 1 1 1 1 1 1
2 1 1 1 1 1 1 1 1 1 0 0 0 0 0 0 0 0 0 0 0 0 0 0 0 0 0 0 0 0 0 1 1 1 1 1 1 1 1 1 1 1 2
1 1 1 1 1 1 1 1 1 1 1 1 1 0 0 0 0 0 0 0 0 0 0 0 0 0 0 0 0 0 0 0 0 1 1 1 1 1 1 1 1 2 2
1 1 1 1 1 1 1 1 1 1 1 1 1 1 1 1 1 0 0 0 0 0 0 0 0 0 0 0 0 0 0 0 0 0 1 1 1 1 1 1 1 2 2
1 1 1 1 1 1 1 1 1 1 1 1 1 1 1 1 1 1 0 0 0 0 0 0 0 0 0 0 0 0 0 0 0 0 0 1 1 1 1 1 1 2 2
Wind_Speed
7 6 5 5 5 4 3 3 2 2 2 2 1 2 2 2 2 2 2 2 2 2 2 2 2 2 2 2 2 2 2 2 2 1 1 2 1 0 1 1 1 1 2
6 6 5 5 5 4 4 3 3 2 2 2 2 2 2 2 2 2 2 2 2 2 2 1 2 1 2 2 2 2 1 2 2 2 1 1 1 1 1 1 1 1 0
6 6 5 5 5 4 4 3 3 3 2 2 2 1 1 2 2 2 2 2 2 2 2 2 2 1 2 1 2 2 1 1 1 1 1 1 1 1 1 1 1 1 2
5 6 6 5 4 4 4 3 3 3 3 2 2 1 1 2 2 2 2 2 2 2 1 2 2 2 2 1 1 1 1 1 1 1 1 2 1 1 1 1 1 1 1
5 5 6 5 5 4 4 4 3 3 3 2 2 2 1 1 1 1 2 2 2 2 2 1 1 1 1 1 1 1 1 1 1 1 1 1 1 1 1 2 2 2 1
4 5 5 5 5 5 4 4 4 3 3 3 2 2 1 1 3 2 2 2 2 2 2 2 3 3 3 2 0 1 2 2 2 2 1 2 1 2 2 2 2 2 2
5 4 5 5 5 4 4 4 4 4 3 3 3 2 2 2 2 0 2 2 2 1 2 2 1 2 3 2 3 4 3 3 4 4 3 2 2 1 2 4 3 3 3
5 5 5 5 5 4 4 4 3 3 3 3 3 2 2 2 3 2 2 3 2 2 2 2 2 1 1 1 2 2 2 2 3 3 3 3 2 1 3 4 4 4 4
5 5 4 4 5 5 4 4 3 3 3 3 3 2 2 3 3 2 3 3 2 2 1 1 1 1 2 1 2 2 2 1 2 1 0 1 1 2 3 3 3 3 3
5 4 4 4 4 4 4 4 4 4 4 3 3 2 2 2 4 2 3 2 2 2 2 2 2 0 1 1 2 2 2 1 1 1 2 3 4 4 5 4 3 3 3
4 4 4 4 4 4 4 4 4 4 4 4 3 3 3 2 4 4 2 2 2 2 2 2 2 3 2 3 4 3 2 3 3 2 2 2 2 2 3 3 3 3 4
4 4 3 4 4 4 5 5 5 5 5 5 4 4 3 4 3 5 4 3 3 2 2 1 2 3 3 4 3 2 2 4 3 2 2 2 2 2 1 2 2 3 3
4 4 3 4 3 4 4 5 5 5 4 4 4 4 3 3 5 6 6 5 4 3 1 1 0 3 4 5 6 5 4 3 2 2 2 2 2 2 2 2 2 2 3
4 4 3 4 4 4 3 4 4 3 4 3 3 3 3 3 3 4 4 4 6 5 3 3 6 6 6 4 4 5 3 2 2 3 3 3 2 2 2 2 2 2 2
5 4 4 4 3 3 3 1 1 1 0 2 2 2 2 2 2 2 1 1 2 1 2 3 3 3 3 3 3 2 2 3 3 3 3 2 2 2 2 2 3 3 3
4 4 4 3 3 3 3 3 3 2 4 3 2 2 1 3 3 1 1 1 2 2 4 4 3 3 3 3 2 2 2 2 3 3 3 3 2 2 2 2 3 3 3
4 3 3 3 3 3 3 3 3 3 3 3 2 1 1 1 1 1 2 3 4 5 5 4 3 3 3 3 3 2 2 2 2 3 3 3 3 3 3 2 3 4 4
3 3 3 3 3 3 3 3 3 3 3 3 4 5 4 3 2 3 3 4 4 5 4 3 3 2 2 2 3 3 2 2 2 3 3 3 3 3 3 3 3 4 4
2 3 3 3 3 3 3 3 3 3 2 2 3 5 5 5 5 4 5 4 3 3 3 2 2 2 2 2 2 3 3 2 2 3 3 3 3 3 4 4 3 3 4
2 2 3 3 3 3 3 3 3 2 2 2 2 2 3 3 3 3 4 3 3 2 2 2 2 2 2 2 3 3 3 2 3 4 3 3 3 4 4 4 4 3 3
2 3 4 3 3 3 3 2 2 2 2 2 1 2 1 3 2 2 2 2 2 2 1 2 2 2 2 2 2 3 3 3 3 3 3 3 3 3 3 3 4 4 3
2 2 3 3 2 2 2 2 2 2 2 2 2 3 4 4 2 2 1 1 2 2 2 2 3 2 2 2 2 3 3 3 3 3 3 3 4 4 3 3 3 4 4
2 2 2 3 3 3 3 2 2 2 2 2 2 2 2 2 2 2 2 2 2 2 2 2 3 2 2 2 2 3 3 2 2 3 4 4 4 3 3 3 4 5 4
3 3 3 3 3 3 3 2 2 2 2 2 2 2 2 2 2 2 2 2 2 2 3 2 3 3 3 3 2 2 2 2 3 3 5 5 5 4 4 4 5 5 5
3 3 3 3 3 3 3 3 3 2 2 2 2 2 2 2 2 2 3 2 3 2 3 3 2 2 3 4 4 2 1 1 2 4 4 4 5 5 5 5 5 5 5
3 2 2 2 2 3 3 3 3 3 3 2 2 2 2 2 2 2 2 2 2 2 2 2 2 3 3 3 2 1 1 1 1 3 5 4 4 4 5 5 6 6 5
Wind_Direction
168 167 162 166 167 174 174 172 174 173 170 185 192 199 197 197 193 201 213 207 213 217 228 216 225 263 264 251 250 264 267 260 244 238 130 110 125 276 105 229 222 226 148
160 158 155 153 154 162 159 159 156 162 165 171 184 198 197 190 191 202 213 210 221 220 221 227 231 220 252 273 273 276 275 274 251 226 180 150 166 199 180 247 260 239 224
153 151 147 150 152 153 153 154 156 157 161 168 177 190 199 198 190 199 206 204 212 223 227 225 222 224 241 257 274 276 278 265 268 203 181 156 198 186 205 214 215 250 257
143 141 141 147 149 150 150 150 155 158 167 175 174 197 220 214 193 189 189 198 210 210 211 221 223 223 230 236 229 249 259 235 213 211 178 171 185 183 224 251 250 232 268
145 144 143 147 148 149 148 147 152 159 168 167 164 170 184 185 161 207 202 201 204 198 191 192 174 118 37 327 313 293 247 248 224 208 194 201 198 235 270 270 277 275 239
155 149 146 149 149 152 152 151 153 159 164 156 152 150 150 99 63 6 276 218 207 197 191 181 174 172 150 162 242 321 303 262 261 251 228 223 236 257 272 274 274 276 281
153 151 151 151 150 156 162 157 161 164 162 164 169 169 158 94 95 137 283 237 200 193 201 205 207 157 190 177 180 203 221 245 257 268 257 260 251 253 267 265 270 280 289
160 160 159 160 157 160 164 162 163 163 170 174 177 177 163 126 134 175 246 211 197 197 202 201 205 193 161 236 226 228 234 228 244 249 261 270 284 279 265 265 266 264 254
169 170 169 167 168 171 170 171 173 178 185 190 185 182 177 152 149 189 255 200 184 189 184 173 208 191 101 271 233 228 237 234 171 149 65 284 322 268 269 266 257 260 270
174 172 168 173 177 178 175 179 182 189 193 196 175 177 183 168 142 161 257 224 191 194 174 178 143 202 125 236 240 240 242 269 282 209 192 205 214 207 224 246 263 273 287
175 170 172 179 184 185 185 187 188 192 189 192 177 177 180 174 151 155 228 255 235 231 225 213 142 144 180 223 246 242 247 272 257 242 230 217 208 210 220 228 260 273 282
175 181 184 190 201 186 186 194 199 198 189 189 187 193 184 176 169 164 180 222 290 257 257 263 109 143 199 225 235 224 236 252 247 242 240 233 235 243 242 248 250 267 279
179 184 187 191 201 202 199 198 201 202 207 197 193 195 189 176 158 165 182 201 231 255 278 56 96 195 222 213 202 213 223 233 249 251 253 250 257 267 259 239 236 242 250
181 187 191 197 197 198 209 206 205 200 205 204 206 206 197 187 179 169 179 189 201 218 231 191 201 217 226 232 208 203 219 229 247 258 258 259 260 257 254 256 249 246 249
185 190 198 199 193 199 198 188 223 156 10 269 248 230 217 197 83 47 297 266 274 285 267 234 226 215 212 214 215 209 223 222 228 239 258 268 263 263 269 278 277 270 268
192 194 195 194 192 197 180 156 79 84 98 81 28 336 56 72 97 113 255 290 288 256 255 240 236 242 250 247 238 223 221 235 248 251 251 256 264 266 271 280 286 282 279
202 198 201 201 201 203 195 188 170 144 141 142 146 136 142 109 137 208 231 231 227 219 235 240 246 251 257 258 259 257 246 242 260 258 258 259 262 263 265 269 276 276 275
206 184 200 201 208 206 201 200 193 182 172 169 166 169 169 177 199 221 207 212 214 211 238 245 251 257 265 267 267 267 266 258 253 259 260 260 260 260 263 267 268 278 282
212 190 197 200 201 199 195 198 194 188 188 183 161 150 168 178 188 204 206 237 248 236 240 253 261 266 272 271 273 272 268 262 260 260 257 262 265 264 263 265 266 267 276
190 177 209 207 196 188 188 193 187 184 192 198 186 155 159 188 198 184 203 235 253 251 262 268 275 280 278 277 269 264 263 262 254 254 260 263 260 258 259 264 266 263 265
186 169 190 206 191 186 181 190 192 197 201 203 192 128 176 233 230 225 229 229 243 250 259 271 265 262 261 262 263 264 269 273 276 274 268 265 265 266 268 264 264 265 268
209 192 193 192 183 184 191 200 204 207 205 210 205 162 178 233 247 248 250 245 247 250 253 255 261 267 274 272 273 271 267 269 275 277 275 266 259 256 259 265 268 269 264
219 206 198 189 185 177 198 211 212 218 225 226 228 227 202 226 240 242 247 247 252 254 257 259 264 264 264 261 264 269 275 283 287 291 284 276 271 265 259 257 256 256 259
216 216 212 200 197 200 206 217 224 227 233 238 241 242 239 234 239 241 250 248 249 253 253 250 249 250 256 262 262 266 296 312 292 279 277 277 275 272 267 262 260 260 259
216 216 220 217 213 214 216 221 228 228 233 238 241 242 239 241 245 247 246 245 244 246 252 252 248 252 261 266 269 284 45 23 304 295 265 264 270 273 274 271 268 268 266
224 223 227 225 219 220 225 230 232 232 232 238 242 246 246 243 246 253 256 255 259 255 258 262 264 269 270 263 268 326 100 124 276 290 282 271 273 277 279 273 270 267 264